Tracking 31027 objects as of 19-Jul-2025
HD Live streaming from Space Station
objects crossing your sky now

WESTPAC

Track WESTPAC now!
10-day predictions
WESTPAC is classified as:


NORAD ID: 25398
Int'l Code: 1998-043E
Perigee: 820.5 km
Apogee: 824.0 km
Inclination: 99.0 °
Period: 101.2 minutes
Semi major axis: 7193 km
RCS: 0.165 m2 (medium)
Launch date: July 10, 1998
Source: Australia (AUS)
Launch site: TYURATAM MISSILE AND SPACE COMPLEX (TTMTR)
Your satellite tracking list
CZ-4C DEB
Track 1 satellite(s)




NASA's NSSDC Master Catalog

Two Line Element Set (TLE):
1 25398U 98043E   25199.49881538 -.00000010  00000-0  15915-4 0  9990
2 25398  98.9715 173.3810 0002426  89.4374 270.7081 14.23022820403488
Source of the keplerian elements: AFSPC